Simultaneous Nadir Overpasses (SNOs) Predictions

Prediction of SNOs between LANDSAT-8 and NOAA-19 Satellite Orbit:

Table of predicted SNOs for the next 14.0 days since TLE Epoch: 2/17/2024
Index Date (LANDSAT-8) Time (LANDSAT-8) Lat,Lon (LANDSAT-8) SZA (LANDSAT-8 ) Date (NOAA-19) Time (NOAA-19) Lat,Lon (NOAA-19) SZA (NOAA-19 ) Distance(km) Time Diff (sec)
1 02/17/2024 03:49:11 80.85, 158.63 94.38 02/17/2024 03:50:24 80.85, 158.74 94.42 1.91 73
2 02/19/2024 09:22:55 -80.83,-105.04 86.44 02/19/2024 09:22:33 -80.83,-105.03 86.45 0.19 22
3 02/19/2024 10:12:21 80.84, 62.68 93.56 02/19/2024 10:13:31 80.85, 62.77 93.60 1.69 70
4 02/21/2024 15:46:05 -80.83, 159.15 87.25 02/21/2024 15:45:40 -80.83, 159.09 87.27 1.15 25
5 02/21/2024 16:35:31 80.84, -33.15 92.75 02/21/2024 16:36:39 80.84, -33.28 92.77 2.32 68
6 02/23/2024 22:09:15 -80.81, 63.10 88.11 02/23/2024 22:08:47 -80.82, 63.13 88.10 1.15 28
7 02/23/2024 22:58:40 80.84,-128.88 91.95 02/23/2024 22:59:46 80.84,-129.05 91.95 3.09 66
8 02/26/2024 04:32:23 -80.83, -32.50 88.90 02/26/2024 04:31:53 -80.82, -32.54 88.92 0.93 30
9 02/26/2024 05:21:49 80.83, 135.17 91.09 02/26/2024 05:22:53 80.83, 135.11 91.11 1.20 64
10 02/28/2024 10:55:31 -80.82,-128.32 89.75 02/28/2024 10:54:59 -80.82,-128.27 89.76 0.83 32
11 02/28/2024 11:44:57 80.83, 39.33 90.24 02/28/2024 11:46:00 80.83, 39.19 90.26 2.64 63
12 03/01/2024 17:18:39 -80.80, 135.63 90.64 03/01/2024 17:18:06 -80.81, 135.56 90.65 1.50 33



Historial Predications of SNOs between LANDSAT-8 and NOAA-19
